Regional Weather Roundup
Issued by NWS

Home | Current Version | Previous Version | Graphics & Text | Print | Product List | Glossary On
Versions: 1 2 3 4 5 6 7 8 9 10 11 12 13 14 15 16 17 18 19 20 21 22 23 24 25 26 27 28 29 30 31 32 33 34 35 36 37 38 39 40 41 42 43 44 45
000
ASUS45 KCYS 260610
RWRWY

WYOMING REGIONAL WEATHER ROUNDUP
NATIONAL WEATHER SERVICE CHEYENNE WY
1100 PM MST THU DEC 25 2014

NOTE:  "FAIR" INDICATES FEW OR NO CLOUDS BELOW 12,000 FEET
WITH NO SIGNIFICANT WEATHER AND/OR OBSTRUCTIONS TO VISIBILITY.

WYZ001-260700-
YELLOWSTONE NATIONAL PARK

CITY           SKY/WX    TMP DP  RH WIND       PRES   REMARKS
LK YELLOWSTONE   N/A      2  -1  88 NW3       29.83R
6HR MIN TEMP:   2; 6HR MAX TEMP:  14;

W YELLOWSTONE  NOT AVBL

$$
WYZ002>013-054>058-071-098>099-260700-
NORTHERN WYOMING

CITY           SKY/WX    TMP DP  RH WIND       PRES   REMARKS
JACKSON        CLOUDY    12  10  92 N16       29.81R WCI  -4
CODY           CLOUDY    19  16  86 CALM      29.92R
GREYBULL       FLURRIES  19  16  88 CALM      29.96R
6HR MIN TEMP:  16; 6HR MAX TEMP:  24; 6HR PCP: TRACE;

WORLAND        CLOUDY    18  14  84 CALM      29.96R
6HR MIN TEMP:  18; 6HR MAX TEMP:  23; 6HR PCP:  0.01;

SHERIDAN       CLOUDY    20  15  81 W5        30.00R WCI  13
6HR MIN TEMP:  20; 6HR MAX TEMP:  22; 6HR PCP:  0.01;

BUFFALO        CLOUDY    17  16  95 N7        29.95R WCI   8
6HR MIN TEMP:  17; 6HR MAX TEMP:  19;

GILLETTE       CLOUDY    18  15  88 NE5       29.97R WCI  11
6HR MIN TEMP:  18; 6HR MAX TEMP:  20;

HULETT           N/A    N/A N/A N/A MISG        N/A
NEWCASTLE      MOCLDY    19  14  79 N15G21    29.94S WCI   5

$$
WYZ014>020-022>026-101>103-260700-
CENTRAL WYOMING

CITY           SKY/WX    TMP DP  RH WIND       PRES   REMARKS
BIG PINEY      CLOUDY     6   3  87 CALM      29.77R
6HR MIN TEMP:   6; 6HR MAX TEMP:  20;

PINEDALE       CLOUDY     9   3  78 W8        29.77R WCI  -4
DUBOIS         NOT AVBL
LANDER         LGT SNOW  18  16  92 N3        29.89R FOG
6HR MIN TEMP:  18; 6HR MAX TEMP:  20; 6HR PCP:  0.09;

RIVERTON       FLURRIES  18  15  88 E5        29.90R WCI  11
6HR MIN TEMP:  18; 6HR MAX TEMP:  20; 6HR PCP: TRACE;

CASPER         LGT SNOW  16  13  88 NE6       29.90S FOG     WCI   7
6HR MIN TEMP:  16; 6HR MAX TEMP:  20; 6HR PCP:  0.05;

DOUGLAS        LGT SNOW  18  15  88 NW5       29.93R FOG     WCI  11
6HR MIN TEMP:  18; 6HR MAX TEMP:  20; 6HR PCP: TRACE;


$$
WYZ021-027>030-104>119-260700-
SOUTHERN WYOMING

CITY           SKY/WX    TMP DP  RH WIND       PRES   REMARKS
EVANSTON       CLOUDY    15   8  73 E14       29.74R WCI   0
6HR MIN TEMP:  15; 6HR MAX TEMP:  20; 6HR PCP: TRACE;

FORT BRIDGER   LGT SNOW  17  16  96 E8        29.78S WCI   6
ROCK SPRINGS   CLOUDY    14   9  80 NE23G32   29.75R WCI  -5
6HR MIN TEMP:  14; 6HR MAX TEMP:  17; 6HR PCP: TRACE;

DIXON          FLURRIES  24  17  74 E16       29.68R WCI  11
RAWLINS        LGT SNOW  14  10  84 NE23      29.76R FOG     WCI  -5
6HR MIN TEMP:  14; 6HR MAX TEMP:  18; 6HR PCP: TRACE;

SARATOGA       CLOUDY    18  10  73 SE5       29.71S WCI  11
LARAMIE        LGT SNOW  13   8  81 E9        29.76R WCI   1
6HR MIN TEMP:  13; 6HR MAX TEMP:  18; 6HR PCP:  0.02;

CHEYENNE       CLOUDY    15  11  83 N14       29.84R FOG     WCI   0
6HR MIN TEMP:  15; 6HR MAX TEMP:  21; 6HR PCP:  0.01;

TORRINGTON     LGT SNOW  21  19  92 NW3       29.93R FOG
6HR MIN TEMP:  21; 6HR MAX TEMP:  24; 6HR PCP: TRACE;

PINE BLUFFS    CLOUDY    19  18  93 NE13      29.88R WCI   7

$$


USA.gov is the U.S. government's official web portal to all federal, state and local government web resources and services.